• In Hungary
  • List of Countries
  • For 7 days
  • Water Temperature
  • Satellite Maps
  • Weather Map
  • News
  • Weather Widgets
  • user-avatar
    Login

    Hourly Weather Skalat

    Today, 21 September, Friday

    Time Temperature Precipitation Wind Pressure Humidity
    00:00 +18°C° 0 mm 1 mps 735 mmHg 66%
    01:00 +18°C° 0 mm 1 mps 735 mmHg 67%
    02:00 +18°C° 0 mm 1 mps 735 mmHg 67%
    03:00 +16°C° 0 mm 1 mps 735 mmHg 67%
    04:00 +16°C° 0 mm 1 mps 735 mmHg 67%
    05:00 +16°C° 0 mm 1 mps 735 mmHg 67%
    06:00 +16°C° 0 mm 2 mps 735 mmHg 65%
    07:00 +17°C° 0 mm 2 mps 735 mmHg 63%
    08:00 +18°C° 0 mm 2 mps 735 mmHg 60%
    09:00 +20°C° 0 mm 3 mps 735 mmHg 55%
    10:00 +21°C° 0 mm 3 mps 735 mmHg 49%
    11:00 +23°C° 0 mm 4 mps 735 mmHg 44%
    12:00 +25°C° 0 mm 4 mps 735 mmHg 42%
    13:00 +26°C° 0 mm 4 mps 735 mmHg 40%
    14:00 +26°C° 0 mm 5 mps 734 mmHg 39%
    15:00 +26°C° 0 mm 4 mps 734 mmHg 42%
    16:00 +25°C° 0 mm 4 mps 734 mmHg 46%
    17:00 +25°C° 0 mm 3 mps 733 mmHg 49%
    18:00 +22°C° 0 mm 3 mps 733 mmHg 50%
    19:00 +20°C° 0 mm 3 mps 733 mmHg 52%
    20:00 +19°C° 0 mm 3 mps 733 mmHg 54%
    21:00 +18°C° 0 mm 3 mps 733 mmHg 53%
    22:00 +18°C° 0 mm 3 mps 733 mmHg 52%
    23:00 +18°C° 0 mm 3 mps 733 mmHg 51%

    Tomorrow, 22 September, Saturday

    Time Temperature Precipitation Wind Pressure Humidity
    00:00 +17°C° 0 mm 3 mps 733 mmHg 54%
    01:00 +17°C° 0 mm 3 mps 732 mmHg 56%
    02:00 +16°C° 0 mm 2 mps 732 mmHg 59%
    03:00 +16°C° 0 mm 2 mps 732 mmHg 61%
    04:00 +16°C° 0 mm 2 mps 732 mmHg 63%
    05:00 +15°C° 0 mm 2 mps 732 mmHg 66%
    06:00 +16°C° 0 mm 3 mps 732 mmHg 64%
    07:00 +17°C° 0 mm 3 mps 732 mmHg 63%
    08:00 +18°C° 0 mm 3 mps 732 mmHg 61%
    09:00 +20°C° 0 mm 4 mps 733 mmHg 58%
    10:00 +21°C° 0 mm 5 mps 733 mmHg 56%
    11:00 +22°C° 0 mm 6 mps 733 mmHg 53%
    12:00 +21°C° 0 mm 6 mps 734 mmHg 55%
    13:00 +20°C° 0 mm 6 mps 734 mmHg 57%
    14:00 +17°C° 0 mm 6 mps 734 mmHg 59%
    15:00 +16°C° 0.2 mm 6 mps 734 mmHg 63%
    16:00 +14°C° 0.2 mm 6 mps 734 mmHg 68%
    17:00 +13°C° 0.2 mm 6 mps 734 mmHg 72%
    18:00 +12°C° 1.7 mm 5 mps 734 mmHg 78%
    19:00 +10°C° 1.7 mm 4 mps 734 mmHg 83%
    20:00 +8°C° 1.7 mm 4 mps 734 mmHg 89%
    21:00 +9°C° 0.7 mm 3 mps 735 mmHg 89%
    22:00 +9°C° 0.7 mm 3 mps 735 mmHg 89%
    23:00 +9°C° 0.7 mm 3 mps 735 mmHg 89%

    Day after tomorrow, 23 September, Sunday

    Time Temperature Precipitation Wind Pressure Humidity
    00:00 +8°C° 0 mm 3 mps 735 mmHg 89%
    01:00 +8°C° 0 mm 3 mps 735 mmHg 89%
    02:00 +7°C° 0 mm 3 mps 735 mmHg 90%
    03:00 +7°C° 0 mm 3 mps 735 mmHg 89%
    04:00 +7°C° 0 mm 3 mps 735 mmHg 89%
    05:00 +7°C° 0 mm 3 mps 735 mmHg 88%
    06:00 +7°C° 0 mm 4 mps 735 mmHg 84%
    07:00 +8°C° 0 mm 5 mps 736 mmHg 81%
    08:00 +9°C° 0 mm 5 mps 736 mmHg 77%
    09:00 +10°C° 0 mm 6 mps 736 mmHg 69%
    10:00 +13°C° 0 mm 6 mps 736 mmHg 62%
    11:00 +15°C° 0 mm 7 mps 736 mmHg 54%
    12:00 +15°C° 0 mm 7 mps 736 mmHg 51%
    13:00 +16°C° 0 mm 7 mps 736 mmHg 49%
    14:00 +16°C° 0 mm 7 mps 736 mmHg 46%
    15:00 +16°C° 0 mm 5 mps 736 mmHg 50%
    16:00 +15°C° 0 mm 4 mps 736 mmHg 53%
    17:00 +16°C° 0 mm 3 mps 736 mmHg 57%
    18:00 +13°C° 0 mm 3 mps 736 mmHg 61%
    19:00 +13°C° 0 mm 2 mps 736 mmHg 66%
    20:00 +12°C° 0 mm 2 mps 736 mmHg 70%
    21:00 +10°C° 0 mm 2 mps 735 mmHg 71%
    22:00 +10°C° 0 mm 2 mps 735 mmHg 72%
    23:00 +10°C° 0 mm 3 mps 735 mmHg 74%

    24 September, Monday

    Time Temperature Precipitation Wind Pressure Humidity
    00:00 +10°C° 0 mm 3 mps 734 mmHg 72%
    01:00 +10°C° 0 mm 4 mps 733 mmHg 70%
    02:00 +10°C° 0 mm 4 mps 733 mmHg 69%
    03:00 +9°C° 0 mm 5 mps 732 mmHg 66%
    04:00 +10°C° 0 mm 5 mps 731 mmHg 63%
    05:00 +10°C° 0 mm 6 mps 729 mmHg 60%
    06:00 +11°C° 0 mm 6 mps 728 mmHg 59%
    07:00 +11°C° 0 mm 7 mps 727 mmHg 58%
    08:00 +12°C° 0 mm 8 mps 726 mmHg 57%
    09:00 +13°C° 0.1 mm 8 mps 725 mmHg 58%
    10:00 +16°C° 0.1 mm 8 mps 724 mmHg 58%
    11:00 +17°C° 0.1 mm 8 mps 724 mmHg 59%
    12:00 +17°C° 0.2 mm 7 mps 723 mmHg 64%
    13:00 +17°C° 0.2 mm 6 mps 723 mmHg 68%
    14:00 +17°C° 0.2 mm 6 mps 722 mmHg 72%
    15:00 +16°C° 0.2 mm 8 mps 722 mmHg 70%
    16:00 +14°C° 0.2 mm 10 mps 723 mmHg 67%
    17:00 +14°C° 0.2 mm 12 mps 723 mmHg 64%
    18:00 +12°C° 0 mm 12 mps 724 mmHg 64%
    19:00 +10°C° 0 mm 13 mps 725 mmHg 64%
    20:00 +9°C° 0 mm 13 mps 725 mmHg 64%
    21:00 +8°C° 0 mm 13 mps 726 mmHg 64%
    22:00 +8°C° 0 mm 13 mps 726 mmHg 63%
    23:00 +8°C° 0 mm 12 mps 727 mmHg 63%

    25 September, Tuesday

    Time Temperature Precipitation Wind Pressure Humidity
    00:00 +8°C° 0 mm 13 mps 727 mmHg 65%
    01:00 +8°C° 0 mm 13 mps 728 mmHg 66%
    02:00 +7°C° 0 mm 13 mps 729 mmHg 68%
    03:00 +7°C° 0 mm 13 mps 729 mmHg 67%
    04:00 +7°C° 0 mm 12 mps 730 mmHg 67%
    05:00 +5°C° 0 mm 12 mps 731 mmHg 67%
    06:00 +5°C° 0 mm 12 mps 731 mmHg 67%
    07:00 +5°C° 0 mm 12 mps 732 mmHg 67%
    08:00 +5°C° 0 mm 12 mps 733 mmHg 67%
    09:00 +6°C° 0 mm 11 mps 733 mmHg 65%
    10:00 +6°C° 0 mm 11 mps 734 mmHg 64%
    11:00 +7°C° 0 mm 11 mps 734 mmHg 62%
    12:00 +7°C° 0.1 mm 11 mps 735 mmHg 59%
    13:00 +7°C° 0.1 mm 11 mps 735 mmHg 56%
    14:00 +8°C° 0.1 mm 11 mps 735 mmHg 53%
    15:00 +8°C° 0.1 mm 10 mps 736 mmHg 54%
    16:00 +8°C° 0.1 mm 10 mps 736 mmHg 55%
    17:00 +7°C° 0.1 mm 9 mps 736 mmHg 56%
    18:00 +7°C° 0 mm 8 mps 736 mmHg 58%
    19:00 +6°C° 0 mm 7 mps 737 mmHg 60%
    20:00 +5°C° 0 mm 6 mps 737 mmHg 61%
    21:00 +5°C° 0 mm 6 mps 737 mmHg 64%
    22:00 +4°C° 0 mm 6 mps 737 mmHg 66%
    23:00 +4°C° 0 mm 6 mps 737 mmHg 68%

    26 September, Wednesday

    Time Temperature Precipitation Wind Pressure Humidity
    00:00 +4°C° 0 mm 6 mps 736 mmHg 68%
    01:00 +4°C° 0 mm 7 mps 736 mmHg 67%
    02:00 +4°C° 0 mm 7 mps 735 mmHg 67%
    03:00 +4°C° 0.6 mm 7 mps 735 mmHg 72%
    04:00 +4°C° 0.6 mm 7 mps 735 mmHg 77%
    05:00 +4°C° 0.6 mm 7 mps 734 mmHg 82%
    06:00 +4°C° 0.4 mm 7 mps 734 mmHg 82%
    07:00 +4°C° 0.4 mm 7 mps 735 mmHg 83%
    08:00 +5°C° 0.4 mm 6 mps 735 mmHg 84%
    09:00 +5°C° 0.1 mm 6 mps 735 mmHg 81%
    10:00 +7°C° 0.1 mm 5 mps 736 mmHg 79%
    11:00 +7°C° 0.1 mm 5 mps 737 mmHg 76%
    12:00 +8°C° 0.1 mm 5 mps 737 mmHg 74%
    13:00 +8°C° 0.1 mm 5 mps 737 mmHg 71%
    14:00 +9°C° 0.1 mm 5 mps 738 mmHg 69%
    15:00 +10°C° 0.1 mm 4 mps 738 mmHg 68%
    16:00 +10°C° 0.1 mm 4 mps 739 mmHg 68%
    17:00 +10°C° 0.1 mm 4 mps 739 mmHg 67%
    18:00 +9°C° 0 mm 3 mps 740 mmHg 71%
    19:00 +8°C° 0 mm 3 mps 740 mmHg 75%
    20:00 +7°C° 0 mm 3 mps 740 mmHg 79%
    21:00 +5°C° 0 mm 3 mps 741 mmHg 82%
    22:00 +5°C° 0 mm 3 mps 741 mmHg 84%
    23:00 +5°C° 0 mm 3 mps 741 mmHg 87%
    Show more